SCP
0 0 0 0 0 0 0 0 0 1 1 0 0 0 0 0 0 0 0 0 0 0 0 0 0 0 0 0 0 0 0 0 0 0 0 0 0 0 0 0 0 0 0
0 0 0 0 0 0 0 0 1 1 1 1 1 1 1 0 0 0 0 0 0 0 0 0 0 0 0 0 0 0 0 0 0 0 0 0 0 0 0 0 0 0 0
0 0 0 0 0 0 0 0 1 1 1 1 1 1 1 1 0 0 0 0 0 0 0 0 0 0 0 0 0 0 0 0 0 0 0 0 0 0 0 0 0 0 0
0 0 0 0 0 0 0 1 1 1 1 1 1 1 1 0 0 0 0 0 0 0 0 0 0 0 0 0 0 0 0 0 0 0 0 0 0 0 0 0 0 0 0
0 0 0 0 0 0 1 1 1 1 1 1 1 1 1 0 0 0 0 0 0 0 0 0 0 0 0 0 0 0 0 0 0 0 0 0 0 0 0 0 0 0 0
0 0 0 1 1 1 1 1 1 1 1 1 1 1 1 0 0 0 0 0 0 0 0 0 0 0 0 0 0 0 0 0 0 0 0 0 0 0 0 0 0 0 0
0 0 1 1 1 1 1 1 1 1 1 1 1 1 1 1 0 0 0 0 0 0 0 0 0 0 0 0 0 0 0 0 0 0 0 0 0 0 0 0 0 0 0
0 0 1 1 1 1 1 1 1 1 1 1 1 1 1 1 1 0 0 0 0 0 0 0 0 0 0 0 0 0 0 0 0 0 0 0 0 0 0 0 0 0 0
0 1 1 1 1 1 1 1 1 1 2 1 1 1 1 1 1 1 1 1 1 0 0 0 0 0 0 0 0 0 0 0 0 0 0 0 1 0 0 0 0 0 0
1 1 1 1 1 1 1 1 2 2 2 1 1 1 1 1 1 1 1 1 1 1 1 1 1 0 1 1 1 1 0 0 0 0 1 1 1 0 0 0 0 0 0
1 1 1 1 1 1 1 2 2 2 1 1 1 1 1 1 1 1 1 1 1 1 1 1 1 1 1 1 1 1 1 0 0 0 1 1 1 1 0 0 0 0 0
1 1 1 1 1 1 1 2 2 2 2 2 2 2 2 2 2 2 2 2 2 2 1 1 1 1 1 2 2 1 1 1 1 1 1 1 1 1 1 1 1 1 0
1 1 1 1 1 2 2 2 2 2 2 2 2 2 2 2 2 2 2 2 2 2 2 1 1 1 2 2 2 2 1 1 1 1 1 2 1 1 1 1 1 1 1
1 1 1 1 2 2 2 2 3 2 2 2 3 2 2 2 2 2 2 2 2 2 2 2 2 2 2 2 2 2 2 2 2 2 2 2 2 1 1 1 1 1 1
2 1 1 2 2 2 2 2 2 2 2 2 2 2 2 2 2 2 2 2 3 3 2 2 2 2 2 2 2 2 2 2 2 2 2 2 2 2 1 1 1 1 1
1 1 1 2 2 2 2 2 2 2 1 1 1 2 2 2 2 2 2 2 3 3 3 3 3 2 2 2 2 2 2 2 2 2 2 2 2 2 2 1 1 1 1
1 1 1 1 2 2 2 2 1 1 1 1 1 1 1 2 1 1 1 1 2 2 3 4 3 3 3 3 2 2 2 2 2 2 2 2 2 2 2 2 2 2 2
2 1 1 1 1 1 1 1 1 1 1 1 1 1 1 1 1 1 1 1 1 1 2 3 3 3 3 3 2 2 2 2 2 2 2 2 2 2 2 2 2 2 2
2 1 1 1 1 1 1 0 0 1 1 0 0 0 0 1 1 1 0 0 1 1 1 2 2 2 2 2 2 2 2 2 2 2 2 2 2 2 2 2 2 2 2
1 1 1 1 0 0 0 0 0 0 0 0 0 0 0 0 0 0 0 0 0 1 1 1 2 2 2 2 2 2 2 2 2 2 2 2 2 2 2 2 3 3 3
1 1 0 0 1 1 1 1 1 1 0 0 0 0 0 0 0 0 0 0 0 0 1 1 1 1 2 2 2 2 3 3 2 2 2 2 2 2 2 2 3 3 3
1 1 1 1 1 1 1 1 1 1 1 1 1 0 0 0 0 0 0 0 0 0 0 0 1 1 1 1 1 2 2 2 2 2 2 2 2 2 2 2 2 3 3
1 1 1 1 1 1 1 1 1 1 1 1 1 1 0 0 0 0 0 0 0 0 0 0 0 0 0 0 1 1 1 1 1 1 1 1 2 2 2 2 2 2 2
1 1 1 2 2 2 2 2 2 1 1 1 1 1 0 0 0 0 0 0 0 0 0 0 0 0 0 0 0 0 0 0 1 1 1 1 1 1 1 1 2 2 2
1 1 1 2 2 2 2 2 2 1 1 1 1 1 0 0 0 0 0 0 0 0 0 0 0 0 0 0 0 0 0 0 0 0 0 0 0 1 1 1 1 2 2
1 1 1 1 2 2 2 2 1 1 1 1 1 0 0 0 0 0 0 0 0 0 0 0 0 0 0 0 0 0 0 0 0 0 0 0 0 0 0 1 1 1 2
Wind_Speed
12 14 15 11 10 9 9 10 11 11 11 11 11 12 11 11 10 9 8 7 6 5 5 5 5 5 5 5 6 7 7 8 8 8 9 9 10 10 11 12 12 13 15
14 16 15 11 10 10 10 10 10 11 11 11 10 11 10 10 9 9 8 7 6 5 4 4 4 4 4 5 6 6 6 7 7 8 9 10 10 10 10 8 6 12 15
15 16 15 11 10 10 10 10 10 11 10 10 10 10 9 9 8 8 7 6 5 4 4 3 3 4 4 5 5 5 6 6 6 6 7 8 11 9 9 9 14 15 14
15 15 14 13 11 10 10 10 10 10 10 10 10 9 8 8 7 7 6 5 5 4 4 3 3 3 4 4 5 4 4 5 5 6 6 7 9 11 9 11 13 13 13
14 13 14 13 11 10 10 9 9 10 10 9 9 8 7 7 6 6 5 5 5 5 4 4 4 3 4 4 4 4 4 4 4 8 4 5 7 11 10 11 12 13 13
14 13 15 12 11 10 10 9 9 9 9 9 8 7 7 6 6 5 5 5 5 5 5 5 5 4 4 5 5 5 4 5 8 5 4 4 8 10 10 11 12 12 12
13 12 15 11 11 10 9 9 9 8 8 8 7 7 6 6 6 6 6 6 6 6 5 5 6 5 5 6 6 6 6 6 8 3 4 4 7 10 10 10 11 12 12
12 11 14 11 9 9 9 8 7 7 7 7 6 6 6 6 6 6 6 7 7 7 7 7 6 7 7 7 7 7 7 9 8 5 4 4 10 8 9 10 10 11 12
10 10 10 12 11 9 7 7 6 6 5 5 4 4 4 5 6 7 7 7 8 8 8 8 8 8 8 8 8 8 8 9 10 5 6 4 11 8 9 10 10 11 12
7 8 8 7 7 8 9 8 5 4 4 3 3 4 4 6 8 8 9 9 8 8 8 8 9 9 9 9 10 9 9 9 12 8 6 6 12 10 10 11 11 11 12
7 6 5 7 5 5 5 7 6 6 4 4 5 4 5 6 6 6 7 3 7 8 9 8 9 9 9 11 12 11 10 9 11 7 5 9 12 12 12 12 12 12 13
9 7 4 3 4 4 2 4 2 3 3 2 1 2 3 3 4 6 1 4 6 7 8 8 9 10 11 9 11 12 8 12 10 7 5 11 11 13 13 13 13 14 14
8 6 5 4 3 3 2 1 1 1 1 0 1 2 2 3 3 4 3 3 5 7 6 6 8 8 8 6 6 8 9 9 7 7 6 13 13 14 15 14 15 15 15
7 6 5 4 3 2 1 2 2 1 1 2 2 3 2 2 3 3 3 3 3 3 3 4 4 6 7 8 9 9 10 8 8 7 6 13 14 15 16 16 16 17 17
7 6 6 5 4 4 3 2 2 2 2 2 1 2 3 3 3 3 2 3 4 3 4 4 5 6 7 8 8 10 11 11 11 10 7 13 15 16 17 17 17 17 18
7 7 6 5 5 4 4 3 2 2 2 2 2 3 4 3 3 3 3 2 3 4 4 4 5 5 6 6 8 9 10 11 11 11 11 10 16 16 17 18 18 18 18
7 7 6 6 6 5 4 3 2 2 2 3 3 3 4 4 4 4 3 3 3 3 3 4 5 5 6 6 8 9 9 10 11 11 12 10 11 17 19 18 18 18 18
7 6 6 6 6 5 4 2 3 3 3 3 3 3 4 4 4 5 5 4 3 5 4 4 5 5 5 6 6 7 7 8 11 11 11 11 10 10 15 21 20 18 19
6 6 5 5 5 4 4 2 2 2 2 2 3 4 4 4 5 6 5 4 5 5 5 5 4 5 6 6 7 7 7 8 9 11 12 13 12 12 11 14 20 20 21
6 5 5 5 4 4 3 2 1 0 1 2 2 3 5 5 5 6 5 3 6 5 5 4 5 5 6 6 8 7 8 8 8 9 11 11 11 13 14 13 12 16 22
7 6 6 5 5 4 2 3 2 2 2 3 3 3 4 5 5 5 7 5 5 6 6 7 6 7 6 5 7 8 8 9 8 7 8 8 9 10 11 12 11 11 11
8 7 7 7 6 6 3 2 2 3 3 3 3 2 4 5 5 5 5 7 6 5 6 6 6 7 6 4 6 8 7 6 5 6 5 6 7 6 9 11 11 12 11
9 9 8 7 6 6 4 4 3 3 5 4 3 3 4 5 6 6 6 7 7 8 6 6 7 8 7 6 4 6 6 6 6 4 4 4 4 5 6 7 10 11 13
10 9 9 8 7 6 6 6 6 6 6 6 5 4 5 5 6 6 6 6 6 7 6 7 6 6 7 8 5 5 6 7 7 6 5 3 4 5 6 6 7 9 11
9 8 7 7 7 6 6 5 6 7 5 5 5 5 6 5 5 5 6 6 6 7 6 7 7 7 7 8 7 6 6 6 8 9 8 7 6 5 5 6 6 7 9
7 6 6 6 6 5 5 5 5 6 6 7 7 7 6 5 4 4 5 5 7 6 6 7 7 8 7 8 8 8 8 8 7 7 9 9 8 6 6 5 6 5 5
Wind_Direction
147 135 134 142 139 133 128 126 132 139 144 146 148 150 151 152 150 149 148 146 143 137 123 109 103 101 100 99 100 101 109 116 118 118 117 116 118 122 128 136 145 121 122
140 134 136 143 141 135 129 125 126 129 133 137 140 144 147 148 150 152 153 154 154 149 133 117 110 107 107 105 107 110 116 123 124 125 129 127 123 126 132 138 119 116 129
140 136 144 142 142 137 132 128 126 125 126 127 130 134 139 143 148 153 157 162 167 163 148 135 124 121 120 118 118 122 127 130 130 142 173 147 126 128 128 118 114 128 131
142 143 146 138 144 141 137 133 129 127 126 126 128 131 135 142 149 157 166 175 182 177 167 160 148 139 136 136 136 138 143 142 144 193 193 131 133 128 134 130 132 136 136
140 139 130 144 146 144 140 137 135 132 131 132 133 137 143 151 159 170 180 189 195 193 188 184 174 165 160 154 154 158 158 151 167 230 126 123 121 134 145 144 144 143 141
143 149 133 149 147 147 145 145 143 142 142 142 144 148 156 165 176 187 197 205 210 209 208 203 194 186 182 178 175 178 178 175 216 188 134 151 129 144 155 154 153 149 148
153 146 137 147 147 149 150 150 150 151 152 153 156 162 173 184 196 205 212 218 224 224 220 218 213 201 199 198 197 197 198 208 246 166 160 161 121 144 164 163 161 156 154
150 145 131 140 148 151 153 154 156 157 161 164 169 179 192 203 215 223 229 232 236 236 234 228 222 212 208 207 211 213 215 235 230 205 198 164 122 159 176 173 171 166 164
152 144 147 157 156 157 157 161 162 163 166 170 181 195 213 223 230 235 238 241 243 244 243 238 231 222 215 213 216 221 225 241 260 221 210 174 138 176 190 183 183 179 174
145 143 149 159 151 167 164 157 164 167 171 183 203 222 243 243 237 236 239 230 244 251 249 246 242 234 223 218 220 222 225 232 247 227 216 156 150 185 200 196 193 191 186
148 153 163 154 155 175 169 142 174 175 183 211 211 215 249 262 260 234 251 250 257 261 259 254 250 245 235 223 221 223 224 233 235 238 220 139 164 192 205 205 202 199 197
158 161 158 158 161 174 160 144 175 194 160 232 303 287 272 287 292 288 292 262 264 267 261 249 250 246 236 230 211 210 227 232 244 233 206 150 178 200 209 210 207 205 204
153 154 157 159 168 171 153 128 86 52 55 347 0 329 313 298 279 276 276 244 249 252 260 248 241 246 244 240 236 221 227 234 235 240 211 166 190 207 214 214 212 209 208
147 145 139 140 139 123 88 84 80 72 52 25 42 340 327 310 303 309 298 301 284 275 274 277 267 259 260 256 247 242 236 234 236 234 219 181 197 210 217 218 217 214 210
147 138 130 135 131 130 120 93 81 64 39 70 17 3 335 324 320 314 299 300 297 299 278 274 274 273 266 255 252 246 242 239 241 242 226 195 204 212 218 221 222 220 216
140 132 130 136 136 133 123 108 94 78 66 28 31 18 348 336 338 318 292 305 301 297 313 300 291 281 272 268 260 256 252 246 240 242 245 217 207 213 219 223 224 223 221
139 133 135 135 130 125 118 112 98 73 50 33 33 22 358 345 346 317 309 285 303 301 294 285 291 280 269 266 262 261 256 253 248 241 242 242 224 212 216 222 223 222 222
136 132 136 130 124 120 106 97 85 49 41 28 14 11 6 351 333 310 303 300 315 291 284 284 273 286 284 280 275 269 260 250 249 246 242 239 240 235 215 216 221 222 223
142 142 141 126 135 126 118 116 90 73 31 6 360 2 3 336 328 305 304 319 292 285 286 289 300 297 291 288 279 264 262 257 252 248 245 242 238 238 238 214 213 219 224
154 157 157 158 153 162 163 168 181 75 352 342 346 9 340 330 332 319 297 309 297 290 288 292 296 282 287 287 289 286 270 260 252 249 248 245 240 237 236 235 219 217 220
177 181 186 191 177 199 213 245 261 288 309 320 328 3 331 332 332 313 307 311 292 294 302 295 290 281 275 291 288 283 271 252 245 246 245 250 245 240 240 235 232 231 216
199 203 205 209 206 219 217 257 285 309 302 318 324 331 319 327 318 306 318 300 300 300 281 282 280 291 291 287 296 299 290 265 224 248 245 241 250 250 245 240 234 231 236
213 215 219 220 220 229 232 240 244 245 259 272 303 306 327 318 310 313 308 302 307 291 293 298 286 274 286 287 283 298 302 311 323 261 261 261 266 265 261 260 246 238 231
220 219 220 223 226 226 231 251 274 290 302 317 309 318 313 297 300 301 300 300 298 296 299 282 280 285 276 278 269 264 281 306 297 297 276 266 273 275 275 266 260 247 237
223 221 218 219 225 227 238 248 260 277 295 300 306 299 293 294 289 293 297 297 292 289 302 302 298 283 279 277 284 280 273 264 259 274 288 297 288 280 283 275 265 255 243
216 215 215 212 219 224 233 246 262 286 294 300 298 302 295 296 294 299 295 293 286 293 296 287 288 274 276 284 283 281 277 275 275 278 282 285 289 290 292 283 271 265 255